Location: Bégole
(43.1574°N, 0.3291°E)
Time: 20:39:58
(UTC+00:00)

NOSS 2-1 (D) - Pass Details

Date: 28 January 2023
Orbit: 418 x 1759 km, 63.3° (Epoch: 19 March)

Event Time Altitude Azimuth Distance (km) Brightness Sun altitude
Rises 19:01:42 0° 320° (NW) 2,794 7.4 -21.3°
Reaches altitude 10° 19:03:40 10° 317° (NW) 2,021 6.7 -21.6°
Maximum altitude 19:08:09 63° 236° (SW) 875 4.4 -22.4°
Drops below altitude 10° 19:14:29 10° 157° (SSE) 2,817 6.7 -23.6°
Enters shadow 19:17:21 - 155° (SSE) 3,901 7.4 -24.1°
